User: anonymous   Login
Location: *
(40.7190°N, 4.2480°W)
Time: 06:32:11
(UTC+00:00)
Language:

DMSP B5D1-3 - Orbit

View from above orbital plane
View from above orbital plane
View from above satellite
View from above satellite

Ground track
Ground track

The orbit data is extracted from the following two-line orbital elements,

1 10820U 78042A   20152.43136378 +.00000061 +00000-0 +36628-4 0  9993
2 10820 098.5411 346.0373 0010674 080.7942 279.4450 14.35311324196098
Epoch (UTC): 31 May 2020 10:21:09
Eccentricity: 0.0010674
inclination: 98.5411°
perigee height: 766 km
apogee height: 781 km
right ascension of ascending node: 346.0373°
argument of perigee: 80.7942°
revolutions per day: 14.35311324
mean anomaly at epoch: 279.4450°
orbit number at epoch: 19609

The dashed part of the orbit path shows where the satellite is in the earth's shadow,  

DLR